When you browse on this site, cookies collect data to enhance your experience and personalize the content and advertising you see.
Visit our Privacy Policy to learn more. By continuing to use the site, you agree to this use of cookies and data.
  • In Lithuania
  • List of Countries
  • For 7 days
  • Water Temperature
  • Satellite Maps
  • Weather Map
  • Weather Widgets
  • user-avatar
    Login

    Hourly Weather Birmingham

    Today, 17 June, Monday

    Time Temperature Precipitation Wind Pressure Humidity
    00:00 +10°C° 0 mm 6 mps 748 mmHg 89%
    01:00 +10°C° 0 mm 6 mps 748 mmHg 89%
    02:00 +10°C° 0 mm 6 mps 748 mmHg 90%
    03:00 +9°C° 0 mm 6 mps 748 mmHg 90%
    04:00 +10°C° 0 mm 6 mps 748 mmHg 89%
    05:00 +10°C° 0 mm 6 mps 748 mmHg 89%
    06:00 +10°C° 0 mm 6 mps 748 mmHg 88%
    07:00 +13°C° 0 mm 6 mps 748 mmHg 85%
    08:00 +14°C° 0 mm 6 mps 748 mmHg 82%
    09:00 +15°C° 0 mm 6 mps 749 mmHg 80%
    10:00 +16°C° 0.1 mm 6 mps 749 mmHg 77%
    11:00 +17°C° 0.1 mm 6 mps 749 mmHg 75%
    12:00 +18°C° 0.1 mm 7 mps 748 mmHg 73%
    13:00 +18°C° 0.4 mm 7 mps 748 mmHg 73%
    14:00 +19°C° 0.4 mm 6 mps 748 mmHg 74%
    15:00 +19°C° 0.4 mm 6 mps 748 mmHg 74%
    16:00 +19°C° 0.3 mm 6 mps 748 mmHg 76%
    17:00 +17°C° 0.3 mm 5 mps 748 mmHg 78%
    18:00 +18°C° 0.3 mm 4 mps 748 mmHg 79%
    19:00 +17°C° 0 mm 4 mps 748 mmHg 82%
    20:00 +14°C° 0 mm 3 mps 748 mmHg 86%
    21:00 +13°C° 0 mm 3 mps 748 mmHg 89%
    22:00 +12°C° 0 mm 3 mps 748 mmHg 90%
    23:00 +12°C° 0 mm 3 mps 748 mmHg 91%

    Tomorrow, 18 June, Tuesday

    Time Temperature Precipitation Wind Pressure Humidity
    00:00 +12°C° 0 mm 2 mps 748 mmHg 92%
    01:00 +12°C° 0 mm 2 mps 748 mmHg 93%
    02:00 +12°C° 0 mm 2 mps 748 mmHg 93%
    03:00 +10°C° 0 mm 2 mps 748 mmHg 94%
    04:00 +12°C° 0 mm 2 mps 748 mmHg 93%
    05:00 +12°C° 0 mm 2 mps 748 mmHg 92%
    06:00 +13°C° 0 mm 2 mps 748 mmHg 92%
    07:00 +14°C° 0 mm 2 mps 748 mmHg 88%
    08:00 +15°C° 0 mm 2 mps 748 mmHg 84%
    09:00 +16°C° 0 mm 2 mps 748 mmHg 79%
    10:00 +17°C° 0 mm 2 mps 747 mmHg 76%
    11:00 +17°C° 0 mm 2 mps 747 mmHg 72%
    12:00 +18°C° 0 mm 2 mps 747 mmHg 69%
    13:00 +18°C° 0.3 mm 2 mps 747 mmHg 73%
    14:00 +17°C° 0.3 mm 2 mps 746 mmHg 78%
    15:00 +16°C° 0.3 mm 2 mps 746 mmHg 82%
    16:00 +16°C° 0.9 mm 2 mps 746 mmHg 86%
    17:00 +15°C° 0.9 mm 1 mps 746 mmHg 90%
    18:00 +14°C° 0.9 mm 1 mps 745 mmHg 94%
    19:00 +14°C° 1.1 mm 1 mps 745 mmHg 94%
    20:00 +14°C° 1.1 mm 1 mps 745 mmHg 95%
    21:00 +14°C° 1.1 mm 1 mps 745 mmHg 95%
    22:00 +13°C° 0.1 mm 1 mps 745 mmHg 95%
    23:00 +13°C° 0.1 mm 1 mps 744 mmHg 95%

    Day after tomorrow, 19 June, Wednesday

    Time Temperature Precipitation Wind Pressure Humidity
    00:00 +13°C° 0.1 mm 1 mps 744 mmHg 95%
    01:00 +13°C° 0 mm 1 mps 744 mmHg 95%
    02:00 +13°C° 0 mm 1 mps 743 mmHg 95%
    03:00 +13°C° 0 mm 1 mps 743 mmHg 95%
    04:00 +13°C° 0.1 mm 1 mps 743 mmHg 95%
    05:00 +13°C° 0.1 mm 1 mps 742 mmHg 95%
    06:00 +13°C° 0.1 mm 1 mps 742 mmHg 94%
    07:00 +13°C° 0.2 mm 2 mps 742 mmHg 94%
    08:00 +14°C° 0.2 mm 2 mps 742 mmHg 94%
    09:00 +14°C° 0.2 mm 2 mps 742 mmHg 93%
    10:00 +13°C° 0.1 mm 3 mps 742 mmHg 92%
    11:00 +13°C° 0.1 mm 3 mps 742 mmHg 91%
    12:00 +13°C° 0.1 mm 4 mps 742 mmHg 90%
    13:00 +13°C° 0.2 mm 4 mps 742 mmHg 91%
    14:00 +13°C° 0.2 mm 4 mps 742 mmHg 91%
    15:00 +13°C° 0.2 mm 4 mps 742 mmHg 91%
    16:00 +13°C° 0.1 mm 3 mps 743 mmHg 88%
    17:00 +14°C° 0.1 mm 3 mps 743 mmHg 84%
    18:00 +15°C° 0.1 mm 2 mps 743 mmHg 81%
    19:00 +14°C° 0.1 mm 2 mps 743 mmHg 84%
    20:00 +12°C° 0.1 mm 3 mps 744 mmHg 87%
    21:00 +11°C° 0.1 mm 3 mps 744 mmHg 89%
    22:00 +10°C° 0 mm 3 mps 744 mmHg 89%
    23:00 +9°C° 0 mm 3 mps 744 mmHg 90%

    20 June, Thursday

    Time Temperature Precipitation Wind Pressure Humidity
    00:00 +9°C° 0 mm 3 mps 744 mmHg 90%
    01:00 +8°C° 0 mm 3 mps 744 mmHg 91%
    02:00 +8°C° 0 mm 3 mps 744 mmHg 92%
    03:00 +8°C° 0 mm 3 mps 745 mmHg 93%
    04:00 +8°C° 0 mm 3 mps 745 mmHg 91%
    05:00 +9°C° 0 mm 3 mps 745 mmHg 90%
    06:00 +10°C° 0 mm 3 mps 745 mmHg 89%
    07:00 +11°C° 0 mm 3 mps 745 mmHg 84%
    08:00 +13°C° 0 mm 4 mps 745 mmHg 79%
    09:00 +14°C° 0 mm 4 mps 746 mmHg 74%
    10:00 +14°C° 0.3 mm 5 mps 746 mmHg 74%
    11:00 +14°C° 0.3 mm 5 mps 746 mmHg 74%
    12:00 +14°C° 0.3 mm 5 mps 746 mmHg 74%
    13:00 +14°C° 0.2 mm 5 mps 746 mmHg 74%
    14:00 +14°C° 0.2 mm 5 mps 746 mmHg 74%
    15:00 +15°C° 0.2 mm 4 mps 746 mmHg 74%
    16:00 +14°C° 0.1 mm 4 mps 746 mmHg 74%
    17:00 +14°C° 0.1 mm 4 mps 746 mmHg 74%
    18:00 +14°C° 0.1 mm 4 mps 746 mmHg 75%
    19:00 +13°C° 0 mm 4 mps 746 mmHg 78%
    20:00 +12°C° 0 mm 4 mps 746 mmHg 81%
    21:00 +10°C° 0 mm 3 mps 746 mmHg 84%
    22:00 +10°C° 0 mm 3 mps 747 mmHg 86%
    23:00 +9°C° 0 mm 3 mps 747 mmHg 87%

    21 June, Friday

    Time Temperature Precipitation Wind Pressure Humidity
    00:00 +8°C° 0 mm 3 mps 747 mmHg 89%
    01:00 +8°C° 0 mm 3 mps 747 mmHg 90%
    02:00 +8°C° 0 mm 3 mps 747 mmHg 91%
    03:00 +8°C° 0 mm 3 mps 747 mmHg 93%
    04:00 +9°C° 0 mm 3 mps 747 mmHg 91%
    05:00 +9°C° 0 mm 3 mps 747 mmHg 89%
    06:00 +10°C° 0 mm 3 mps 747 mmHg 88%
    07:00 +11°C° 0.1 mm 3 mps 748 mmHg 82%
    08:00 +12°C° 0.1 mm 3 mps 748 mmHg 76%
    09:00 +14°C° 0.1 mm 3 mps 749 mmHg 70%
    10:00 +16°C° 0.2 mm 3 mps 749 mmHg 67%
    11:00 +16°C° 0.2 mm 3 mps 749 mmHg 65%
    12:00 +17°C° 0.2 mm 3 mps 749 mmHg 62%
    13:00 +17°C° 0.2 mm 3 mps 749 mmHg 61%
    14:00 +17°C° 0.2 mm 4 mps 749 mmHg 61%
    15:00 +18°C° 0.2 mm 4 mps 749 mmHg 60%
    16:00 +17°C° 0 mm 3 mps 749 mmHg 62%
    17:00 +17°C° 0 mm 3 mps 749 mmHg 65%
    18:00 +17°C° 0 mm 3 mps 749 mmHg 67%
    19:00 +14°C° 0 mm 3 mps 750 mmHg 71%
    20:00 +13°C° 0 mm 2 mps 750 mmHg 74%
    21:00 +10°C° 0 mm 2 mps 751 mmHg 78%
    22:00 +10°C° 0 mm 2 mps 751 mmHg 78%
    23:00 +10°C° 0 mm 1 mps 751 mmHg 77%

    22 June, Saturday

    Time Temperature Precipitation Wind Pressure Humidity
    00:00 +10°C° 0 mm 1 mps 751 mmHg 77%
    01:00 +9°C° 0 mm 1 mps 751 mmHg 79%
    02:00 +9°C° 0 mm 1 mps 751 mmHg 80%
    03:00 +8°C° 0 mm 1 mps 751 mmHg 82%
    04:00 +9°C° 0 mm 1 mps 751 mmHg 80%
    05:00 +10°C° 0 mm 1 mps 751 mmHg 79%
    06:00 +11°C° 0 mm 1 mps 751 mmHg 77%
    07:00 +12°C° 0 mm 1 mps 752 mmHg 72%
    08:00 +14°C° 0 mm 1 mps 752 mmHg 67%
    09:00 +15°C° 0 mm 2 mps 752 mmHg 63%
    10:00 +16°C° 0 mm 2 mps 752 mmHg 62%
    11:00 +17°C° 0 mm 2 mps 752 mmHg 61%
    12:00 +17°C° 0 mm 2 mps 752 mmHg 60%
    13:00 +18°C° 0.1 mm 2 mps 752 mmHg 60%
    14:00 +18°C° 0.1 mm 2 mps 751 mmHg 60%
    15:00 +19°C° 0.1 mm 2 mps 751 mmHg 60%
    16:00 +18°C° 0.2 mm 3 mps 751 mmHg 66%
    17:00 +17°C° 0.2 mm 3 mps 751 mmHg 73%
    18:00 +16°C° 0.2 mm 3 mps 751 mmHg 80%
    19:00 +14°C° 0 mm 3 mps 751 mmHg 81%
    20:00 +13°C° 0 mm 3 mps 752 mmHg 83%
    21:00 +12°C° 0 mm 3 mps 752 mmHg 85%
    22:00 +11°C° 0 mm 3 mps 752 mmHg 86%
    23:00 +11°C° 0 mm 3 mps 752 mmHg 87%
    Show more